Lid_Strength_Index
-1 -1 -0 3 10 10 13 12 8 9 8 6 5 6 7 7 8 10 1 0 -0 -0 -1 -1 -2 -2 -2 -2 -2 -2 -1 -2 -1 -2 -2 -1 -1 -1 -1 -2 -1 -1 -2 -1 -2 -2 -2 -2 -2
-1 0 1 5 11 14 13 9 10 8 6 5 5 6 7 8 4 4 2 -0 -1 -1 -1 -1 -2 -2 -1 -1 -2 -2 -1 -2 -2 -2 -2 -1 -1 -2 -1 -1 -2 -2 -2 -2 -2 -2 -2 -2 -2
0 1 6 8 11 14 13 9 8 7 5 5 7 5 6 7 4 3 0 -0 -1 -1 -1 -1 -1 -2 -1 -1 -1 -1 -1 -1 -1 -2 -2 -1 -1 -1 -2 -1 -2 -2 -2 -2 -2 -2 -2 -2 -2
2 3 5 10 12 10 10 8 7 7 5 5 5 8 4 2 3 1 -0 -1 -0 -1 -1 -1 -1 -1 -1 -1 -1 -1 -1 -1 -2 -2 -2 -1 -1 -1 -1 -1 -1 -2 -2 -2 -2 -2 -2 -2 -2
2 5 10 11 11 9 8 7 6 7 7 6 5 8 7 3 1 0 0 -0 -0 -1 -1 -1 -2 -2 -1 -1 -1 -1 -1 -1 -1 -1 -2 -2 -2 -1 -1 -1 -2 -2 -2 -2 -2 -2 -2 -2 -1
6 6 11 13 11 9 7 6 6 7 6 6 6 7 6 2 2 1 -0 -0 -1 -0 -1 -1 -1 -1 -1 -1 -1 -1 -1 -1 -1 -1 -2 -1 -2 -2 -1 -1 -1 -2 -2 -1 -2 -1 -1 -1 -1
7 8 11 11 11 10 8 5 7 7 7 6 4 8 6 3 1 0 0 -0 -0 -1 -1 -1 -1 -1 -1 -1 -1 -1 -1 -1 -1 -1 -1 -1 -2 -1 -1 -1 -1 -2 -2 -1 -1 -1 -2 -1 -1
5 7 11 10 11 11 7 6 5 6 7 3 3 8 8 4 1 0 0 0 -0 -0 -1 -1 -1 -1 -1 -1 -1 -1 -1 -1 -1 -1 -1 -1 -2 -2 -1 -1 -2 -2 -2 -1 -1 -1 -2 -2 -1
4 9 11 10 10 9 6 7 5 4 5 5 4 4 3 2 1 1 1 1 1 0 -0 -1 -1 -1 -1 -1 -1 -1 -1 -1 -1 -1 -1 -2 -2 -2 -1 -1 -2 -2 -2 -1 -1 -1 -1 -1 -1
7 9 10 7 7 8 6 6 6 6 6 6 6 4 2 2 2 3 3 3 2 1 0 -0 -1 -1 -1 -1 -1 -2 -1 -2 -2 -2 -2 -2 -2 -2 -1 -1 -2 -2 -1 -1 -1 -1 -1 -1 -2
7 9 7 7 6 5 6 6 5 7 8 6 7 5 4 3 3 3 2 2 2 1 0 -0 -1 -1 -1 -1 -1 -1 -1 -1 -2 -2 -2 -1 -1 -1 -1 -1 -2 -2 -2 -1 -1 -1 -2 -1 -2
8 7 6 6 5 6 7 5 6 6 6 4 4 4 4 4 3 3 3 2 2 1 1 -0 -1 -1 -1 -1 -1 -1 -1 -1 -1 -1 -2 -1 -1 -1 -1 -1 -1 -2 -1 -1 -2 -2 -2 -1 -1
7 6 6 5 5 5 5 6 6 6 4 3 3 4 4 3 3 2 2 1 1 1 1 0 -1 -1 -1 -1 -1 -1 -1 -1 -1 -1 -1 -1 -1 -1 -1 -1 -1 -1 -1 -1 -1 -2 -1 -1 -1
6 6 6 6 6 5 6 6 6 6 4 4 4 4 4 3 3 3 2 2 2 1 1 0 -0 -1 -1 -1 -1 -1 -1 -1 -1 -1 -1 -1 -1 -1 -1 -1 -1 -1 -1 -1 -1 -1 -1 -1 -1
5 7 7 6 6 7 5 8 8 5 4 5 5 4 4 3 3 3 2 2 1 1 0 0 -0 -1 -1 -1 -1 -1 -1 -1 -1 -1 -2 -2 -2 -1 -1 -1 -1 -1 -1 -1 -1 -1 -2 -1 -1
7 7 9 7 6 6 6 9 6 5 5 6 5 5 4 4 3 2 2 1 1 1 1 0 -0 -0 -1 -1 -1 -1 -1 -1 -1 -1 -1 -2 -2 -2 -1 -1 -1 -1 -1 -1 -1 -1 -0 -0 -0
8 10 10 8 6 7 7 9 7 5 5 6 6 5 4 4 3 2 2 1 1 1 1 0 -0 -0 -0 -1 -1 -1 -1 -1 -1 -1 -1 -2 -2 -2 -1 -1 -1 -1 -1 -1 -1 -1 -1 -0 0
10 10 9 9 7 7 8 8 7 6 6 6 6 5 5 4 4 2 2 1 1 1 0 0 0 -0 -1 -1 -1 -1 -1 -1 -1 -1 -1 -2 -1 -2 -1 -1 -1 -1 -1 -0 -0 -0 -1 -0 0
9 9 9 8 7 8 8 8 7 6 6 6 6 6 5 5 3 2 2 1 1 1 1 1 0 -0 0 0 1 1 1 0 -0 -1 -2 -1 -1 -2 -1 -1 -1 -1 -1 -0 -1 -0 0 0 -0
9 10 10 9 7 8 8 7 6 6 6 6 6 5 5 4 4 3 2 2 1 1 1 1 0 0 0 0 0 0 0 -0 -0 -1 -1 -1 -1 -2 -1 -1 -1 -1 -0 -0 -0 -0 1 0 -0
10 10 10 9 8 6 8 8 7 6 6 5 5 4 4 4 4 3 3 2 2 2 1 1 1 0 -0 -0 -0 -0 -0 -0 0 0 -0 -1 -1 -1 -1 -1 -1 -1 -1 -0 -0 -0 0 1 1
10 8 9 9 9 10 9 10 8 7 7 7 6 5 5 4 3 3 3 2 2 1 1 1 0 0 0 -0 0 0 1 2 1 0 -0 -1 -1 -1 -1 -1 -1 -1 -1 -0 -0 -0 -0 0 2
8 8 9 9 9 10 9 10 8 8 8 7 5 5 4 4 3 3 3 2 2 1 1 1 0 0 -0 0 -0 1 1 1 0 0 -0 -0 -1 -1 -1 -1 -1 -1 -1 -1 -1 -0 -0 -0 1
8 9 9 10 10 11 11 11 9 8 7 6 5 4 4 4 3 3 2 2 2 1 1 1 1 1 0 0 0 1 1 1 1 1 1 0 -0 -0 -1 -1 -1 -1 -1 -1 -1 -1 -0 -0 0
8 9 10 11 11 11 11 11 8 8 6 6 6 6 4 3 4 3 3 3 2 2 2 1 1 1 1 0 0 0 1 0 1 1 1 0 1 0 -0 -1 -1 -0 -1 -1 -1 -1 -0 -0 0
9 9 10 14 12 12 11 10 8 8 5 5 5 5 4 3 3 3 3 3 2 2 2 1 1 1 1 1 1 0 -0 0 0 0 0 0 0 -0 -1 -1 -1 -1 -1 -1 -1 -0 -0 -0 -0
9 9 10 12 12 12 10 8 6 5 6 6 6 5 5 4 4 3 3 2 2 2 2 1 1 1 1 1 0 0 0 0 0 -0 -0 0 -1 -0 -1 -1 -1 -1 -1 -1 -1 -0 -0 -0 -0
8 9 9 9 13 13 10 10 10 8 8 7 7 6 5 5 4 3 3 2 2 2 1 1 1 1 1 1 1 0 0 0 -0 -0 0 -0 -0 -1 -1 -1 -1 -1 -1 -1 -1 -0 -0 -0 0
8 8 10 10 11 11 12 10 7 8 7 8 6 6 5 5 4 4 3 3 2 2 1 1 1 1 1 1 1 1 0 0 -0 0 -0 -0 -0 -0 -0 -0 -0 -0 -0 -1 -0 -0 -0 0 0
8 8 8 9 11 12 11 10 7 7 6 6 6 6 5 4 4 4 3 3 3 2 2 2 1 1 1 1 1 1 0 0 0 0 0 -0 0 -0 -0 -0 -0 -0 -0 -0 -0 0 0 0 1